EW6920 Weather Reports


Display with metric or nautical units.
time (UTC)temp
F
wind
direction
speed
MPH
gust
MPH
rain 1hr
in
rain 24hr
in
rain mn
in
humidity
%
barometer
mb
20260502201544 56 0 2.0 11.0 0.00 0.00 0.00 29 1010.7
20260502200047 56 278 6.0 17.0 0.00 0.00 0.00 37 1011.2
20260502194548 56 268 1.0 15.0 0.00 0.00 0.00 34 1011.4
20260502193048 56 247 6.0 11.0 0.00 0.00 0.00 42 1011.7
20260502191548 56 326 5.0 11.0 0.00 0.00 0.00 35 1011.9
20260502190045 56 286 7.0 11.0 0.00 0.00 0.00 40 1012.3
20260502184543 55 302 8.0 18.0 0.00 0.00 0.00 41 1012.5
20260502183048 54 227 9.0 14.0 0.00 0.00 0.00 43 1012.8
20260502181547 54 190 1.0 5.0 0.00 0.00 0.00 33 1012.9
20260502163059 51 0 3.0 9.0 0.00 0.00 0.00 37 1014.2
20260502161554 50 272 4.0 12.0 0.00 0.00 0.00 42 1014.3
20260502151544 47 226 5.0 9.0 0.00 0.00 0.00 48 1014.9
20260502123109 26 0 0.0 0.0 0.00 0.00 0.00 93 1015.8
20260502121557 25 0 0.0 0.0 0.00 0.00 0.00 92 1015.8
20260502114547 24 0 0.0 0.0 0.00 0.00 0.00 92 1015.8
20260502113050 23 0 0.0 0.0 0.00 0.00 0.00 91 1015.9
20260502111547 23 0 0.0 0.0 0.00 0.00 0.00 91 1015.8
20260502110046 23 0 0.0 0.0 0.00 0.00 0.00 91 1015.7
20260502104548 23 0 0.0 0.0 0.00 0.00 0.00 91 1015.8
20260502103047 23 0 0.0 0.0 0.00 0.00 0.00 91 1015.8
20260502101547 23 0 0.0 0.0 0.00 0.00 0.00 91 1015.9
20260502070101 26 0 0.0 0.0 0.00 0.00 0.00 87 1016.1
20260502064553 26 0 0.0 0.0 0.00 0.00 0.00 87 1016.2
20260502063050 26 0 0.0 0.0 0.00 0.00 0.00 86 1016.3
20260502061542 26 0 0.0 0.0 0.00 0.00 0.00 86 1016.4
20260502060052 27 0 0.0 0.0 0.00 0.00 0.00 85 1016.3
20260502054545 27 0 0.0 0.0 0.00 0.00 0.00 85 1016.3
20260502053045 27 0 0.0 0.0 0.00 0.00 0.00 84 1016.3
20260502051559 27 0 0.0 0.0 0.00 0.00 0.00 84 1016.4
20260502050048 27 0 0.0 0.0 0.00 0.00 0.00 83 1016.4
20260502044546 28 0 0.0 0.0 0.00 0.00 0.00 83 1016.4
20260502043046 28 0 0.0 0.0 0.00 0.00 0.00 81 1016.4
20260502041542 28 0 0.0 0.0 0.00 0.00 0.00 79 1016.4
20260502040042 28 0 0.0 0.0 0.00 0.00 0.00 78 1016.5
20260502034546 29 0 0.0 0.0 0.00 0.00 0.00 78 1016.5
20260502033048 29 0 0.0 0.0 0.00 0.00 0.00 77 1016.6
20260502031544 29 0 0.0 0.0 0.00 0.00 0.00 75 1016.6
20260502030045 30 0 0.0 0.0 0.00 0.00 0.00 73 1016.7
20260502024546 31 0 0.0 0.0 0.00 0.00 0.00 70 1016.5
20260502023047 31 0 0.0 0.0 0.00 0.00 0.00 67 1016.6
20260502021545 33 0 0.0 0.0 0.00 0.00 0.00 65 1016.6
20260502020045 34 0 0.0 0.0 0.00 0.00 0.00 63 1016.8
20260502014540 35 0 0.0 0.0 0.00 0.00 0.00 59 1016.7
20260502013047 36 0 0.0 0.0 0.00 0.00 0.00 56 1016.4
20260502011545 37 0 0.0 0.0 0.00 0.00 0.00 52 1016.4
20260502010044 38 0 0.0 5.0 0.00 0.00 0.00 50 1016.4
20260502004547 39 0 1.0 6.0 0.00 0.00 0.00 50 1016.4
20260502003048 40 355 1.0 12.0 0.00 0.00 0.00 46 1016.2
20260502001552 41 79 2.0 9.0 0.00 0.00 0.00 47 1016.3
20260502000044 41 320 2.0 11.0 0.00 0.00 0.00 47 1016.2
20260501234553 42 298 3.0 11.0 0.00 0.00 0.00 42 1016.0
20260501233047 42 294 3.0 10.0 0.00 0.00 0.00 45 1016.2
20260501231553 42 301 6.0 16.0 0.00 0.00 0.00 45 1016.2
20260501230045 42 281 3.0 12.0 0.00 0.00 0.00 41 1016.2
20260501224544 42 336 4.0 14.0 0.00 0.00 0.00 41 1016.1
20260501223049 42 292 4.0 12.0 0.00 0.00 0.00 41 1016.1
20260501221556 42 313 8.0 15.0 0.00 0.00 0.00 41 1016.3
20260501220047 42 302 7.0 13.0 0.00 0.00 0.00 40 1016.2
20260501214550 43 289 4.0 12.0 0.00 0.00 0.00 39 1016.0
20260501213045 44 302 6.0 15.0 0.00 0.00 0.00 41 1016.1
20260501211549 44 326 8.0 15.0 0.00 0.00 0.00 39 1016.0
20260501210046 44 329 2.0 12.0 0.00 0.00 0.00 38 1016.0
20260501204545 45 140 5.0 14.0 0.00 0.00 0.00 38 1016.0
20260501203053 44 136 2.0 9.0 0.00 0.00 0.00 41 1016.0